Sheppard AFB, TX

11:50 PM CST on February 24, 2017 (GMT -0600)
Sheppard Air Force Base-Wichita Falls Municipal

Weather History for KSPS - November, 2012

Change the Weather History Date:

Friday, November 23, 2012

  Actual Average Record
Temperature  
Mean Temperature 49 °F 49 °F  
Max Temperature 61 °F 62 °F 84 °F (1973)
Min Temperature 37 °F 37 °F 21 °F (1950)
Degree Days  
Heating Degree Days 16 16  
Month to date heating degree days 171 259  
Since 1 July heating degree days 333 385  
Cooling Degree Days 0 0  
Month to date cooling degree days 28 10  
Year to date cooling degree days 2948 2386  
Moisture  
Dew Point 27 °F    
Average Humidity 42    
Maximum Humidity 64    
Minimum Humidity 20    
Precipitation  
Precipitation 0.00 in 0.04 in 1.90 in (1913)
Month to date precipitation 0.20 1.31  
Year to date precipitation 19.21 26.96  
Snow  
Snow 0.00 in 0.00 in - ()
Month to date snowfall 0.0 0.2  
Since 1 July snowfall 0.0 0.2  
Snow Depth -    
Sea Level Pressure  
Sea Level Pressure 30.41 in    
Wind  
Wind Speed 16 mph (NNE)    
Max Wind Speed 30 mph    
Max Gust Speed 37 mph    
Visibility 10 miles    
Events      
T = Trace of Precipitation, MM = Missing Value Source: NWS Daily Summary

Daily Weather History Graph

Daily Weather History Graph

Search for Another Location

Airport or City:

Trip Planner

Search our weather history database for the weather conditions in past years. The results will help you decide how hot, cold, wet, or windy it might be!

Date:

Astronomy

Nov. 23, 2012 Rise Set
Actual Time 7:14 AM CST 5:26 PM CST
Civil Twilight 6:47 AM CST 5:53 PM CST
Nautical Twilight 6:16 AM CST 6:23 PM CST
Astronomical Twilight 5:46 AM CST 6:53 PM CST
Moon 2:32 PM CST (11/23) 2:45 AM CST (11/23)
Length of Visible Light 11h 05m
Length of Day
10h 11m
Waxing Gibbous, 80% of the Moon is Illuminated
Nov 23
Waxing Gibbous
Nov 28
Full
Dec 6
Last Quarter
Dec 13
New
Dec 19
First Quarter

Hourly Weather History & Observations

Time (CST) Temp. Windchill Dew Point Humidity Pressure Visibility Wind Dir Wind Speed Gust Speed Precip Events Conditions
12:52 AM 61.0 °F - 39.9 °F 46% 30.13 in 10.0 mi NNE 25.3 mph 29.9 mph N/A   Clear
1:52 AM 59.0 °F - 39.0 °F 48% 30.17 in 10.0 mi NNE 24.2 mph 29.9 mph N/A   Clear
2:52 AM 55.9 °F - 37.9 °F 51% 30.21 in 10.0 mi NNE 23.0 mph 31.1 mph N/A   Clear
3:52 AM 57.0 °F - 37.0 °F 47% 30.25 in 10.0 mi NNE 25.3 mph 34.5 mph N/A   Overcast
4:52 AM 55.0 °F - 30.9 °F 40% 30.30 in 10.0 mi NNE 20.7 mph 31.1 mph N/A   Scattered Clouds
5:52 AM 51.1 °F - 32.0 °F 48% 30.34 in 10.0 mi North 16.1 mph - N/A   Scattered Clouds
6:52 AM 48.9 °F - 32.0 °F 52% 30.38 in 10.0 mi North 15.0 mph - N/A   Partly Cloudy
7:52 AM 48.9 °F - 33.1 °F 54% 30.42 in 10.0 mi North 15.0 mph - N/A   Mostly Cloudy
8:52 AM 51.1 °F - 35.1 °F 54% 30.46 in 10.0 mi North 19.6 mph 25.3 mph N/A   Clear
9:52 AM 53.1 °F - 32.0 °F 45% 30.49 in 10.0 mi NNE 20.7 mph - N/A   Clear
10:52 AM 57.0 °F - 27.0 °F 32% 30.51 in 10.0 mi NE 20.7 mph 26.5 mph N/A   Clear
11:52 AM 59.0 °F - 21.0 °F 23% 30.49 in 10.0 mi NNE 21.9 mph 28.8 mph N/A   Clear
12:52 PM 60.1 °F - 19.0 °F 20% 30.47 in 10.0 mi NNE 20.7 mph 26.5 mph N/A   Clear
1:52 PM 60.1 °F - 19.0 °F 20% 30.46 in 10.0 mi North 21.9 mph 29.9 mph N/A   Clear
2:52 PM 60.1 °F - 19.9 °F 21% 30.45 in 10.0 mi NNE 20.7 mph - N/A   Clear
3:52 PM 59.0 °F - 21.0 °F 23% 30.44 in 10.0 mi NNE 17.3 mph - N/A   Clear
4:52 PM 55.9 °F - 21.9 °F 27% 30.45 in 10.0 mi NNE 10.4 mph - N/A   Clear
5:52 PM 48.9 °F - 23.0 °F 36% 30.45 in 10.0 mi NNE 9.2 mph - N/A   Clear
6:52 PM 44.1 °F 40.8 °F 24.1 °F 45% 30.46 in 10.0 mi North 5.8 mph - N/A   Clear
7:52 PM 41.0 °F 35.8 °F 25.0 °F 53% 30.47 in 10.0 mi North 8.1 mph - N/A   Clear
8:52 PM 41.0 °F - 25.0 °F 53% 30.47 in 10.0 mi Calm Calm - N/A   Clear
9:52 PM 39.0 °F 35.7 °F 25.0 °F 57% 30.47 in 10.0 mi North 4.6 mph - N/A   Clear
10:52 PM 39.9 °F 37.8 °F 25.0 °F 55% 30.46 in 10.0 mi North 3.5 mph - N/A   Clear
11:52 PM 37.9 °F 35.5 °F 24.1 °F 57% 30.45 in 10.0 mi North 3.5 mph - N/A   Clear